81P/Wild 2 (2022)

Japanese version
Home page
Updated on April 15, 2023

---------------------------------------------------------------------

* Profile

* Pictures

* Orbital Elements

Epoch 2023 Feb. 25.0 TT = JDT 2460000.5
T 2022 Dec. 15.61331 TT                                 Rudenko
q   1.5984363            (2000.0)            P               Q
n   0.15350886     Peri.   41.62463     -0.99847611     -0.03889645
a   3.4544619      Node   136.09880     +0.02222869     -0.93275660
e   0.5372836      Incl.    3.23641     +0.05051091     -0.35840229
P   6.42
>From 2209 observations 2014 Oct. 18-2023 Mar. 19, mean residual 0".6.
     Nongravitational parameters A1 = +0.44, A2 = +0.3131.

* Finding Charts

* Magnitudes Graph

        m1 = 6.3 + 5 log d + 18.0 log r(t + 20)  [  ,95]  (             - 2023 Mar. 20)
        m1 = 8.2 + 5 log d + 12.5 log r          [95,  ]  (2023 Mar. 20 -             )

---------------------------------------------------------------------

The orbital elements are published on M.P.E.C. 2023-F81.
The charts are made with StellaNavigator Ver.10 (AstroArts).
The magnitudes graphs are made with Comet for Windows.

---------------------------------------------------------------------

Copyright(C) Seiichi Yoshida (comet@aerith.net). All rights reserved.